Meteo Giornale » Osservazioni meteo Croazia » Pula Aerodrome

ore: 13:30 - Osservazioni Meteo Pula Aerodrome
Lat. 45° 54' N Lon. 13° 55' E Alt. 63 metri s.l.m.

poco_nuvoloso Europe/Zagreb

30 °C

Poco Nuvoloso

Temp. 24 Ore

20 °C

30 °C

Est

20.3 Km/h

Dew point 12 °C

Umidità 33 %

Visibilità  10 Km

Il sole sorge alle ore 05:11

Il sole tramonta alle ore 20:59

Data e Ora Cielo e Fenomeni T °C DP °C Um. % Pres. hPa Vis. km Vento km/h
Oggi h: 13:30 poco_nuvoloso Poco Nuvoloso 30 12 33 1015 10 E 20.3
Oggi h: 13:00 poco_nuvoloso Poco Nuvoloso 29 13 37 1015 10 E 18.5
Oggi h: 12:30 sereno Sereno 29 11 32 1015 10 E/NE 14.8
Oggi h: 12:00 sereno Sereno 29 11 32 1015 10 E/NE 24
Oggi h: 11:30 sereno Sereno 30 11 30 1015 10 E/NE 24
Oggi h: 11:00 sereno Sereno 28 11 34 1015 10 E/NE 22.2
Oggi h: 10:30 sereno Sereno 29 11 32 1015 10 E/NE 20.3
Oggi h: 10:00 sereno Sereno 27 11 36 1015 10 NE 18.5
Oggi h: 09:30 sereno Sereno 27 13 42 1015 10 N/NE 14.8
Oggi h: 09:00 sereno Sereno 27 12 39 1015 10 N 14.8
Oggi h: 08:30 sereno Sereno 25 13 47 1014 10 N/NE 9.3
Oggi h: 08:00 sereno Sereno 25 13 47 1014 10 N/NE 13
Oggi h: 07:30 sereno Sereno 24 13 50 1014 10 N/NE 11.1
Oggi h: 07:00 sereno Sereno 23 13 53 1014 10 NE 13
Oggi h: 06:30 sereno Sereno 22 12 53 1013 10 NE 9.3
Oggi h: 06:00 sereno Sereno 21 12 56 1013 10 NE 13
Oggi h: 05:30 sereno Sereno 21 12 56 1013 10 N/NE 13
Oggi h: 05:00 sereno Sereno 21 12 56 1013 10 N/NE 13
Oggi h: 04:30 sereno Sereno 20 12 59 1013 10 N/NE 11.1
Oggi h: 04:00 sereno Sereno 21 12 56 1013 10 N/NE 13
Oggi h: 03:30 sereno Sereno 21 12 56 1013 10 N/NE 13
Oggi h: 03:00 sereno Sereno 22 13 56 1013 10 N/NE 13
Oggi h: 02:30 sereno Sereno 21 13 60 1013 10 N/NE 11.1
Oggi h: 02:00 sereno Sereno 21 13 60 1013 10 N/NE 9.3
Oggi h: 01:30 sereno Sereno 22 13 56 1013 10 N/NE 11.1
Oggi h: 01:00 sereno Sereno 21 13 60 1013 10 N/NE 9.3
Oggi h: 00:30 sereno Sereno 22 13 56 1013 10 N 9.3
Oggi h: 00:00 sereno Sereno 21 13 60 1013 10 N 7.4
Ieri h: 23:30 sereno Sereno 22 13 56 1013 10 N/NE 9.3
Ieri h: 23:00 sereno Sereno 22 14 60 1013 10 N/NE 9.3
Ieri h: 22:30 sereno Sereno 22 13 56 1013 10 N 11.1
Ieri h: 22:00 sereno Sereno 22 14 60 1013 10 N/NE 9.3
Ieri h: 21:30 sereno Sereno 21 14 64 1013 10 N/NE 7.4
Ieri h: 21:00 sereno Sereno 22 15 64 1013 10 N 7.4
Ieri h: 20:30 sereno Sereno 24 15 57 1012 10 N 5.5
Ieri h: 20:00 sereno Sereno 26 14 47 1012 10 E 7.4
Ieri h: 19:30 sereno Sereno 27 14 44 1012 10 E/NE 11.1
Ieri h: 19:00 sereno Sereno 28 13 39 1012 10 E/NE 14.8
Ieri h: 18:30 poco_nuvoloso Poco Nuvoloso 28 13 39 1012 10 E/NE 13
Ieri h: 18:00 poco_nuvoloso Poco Nuvoloso 28 13 39 1012 10 E/NE 13
Ieri h: 17:30 poco_nuvoloso Poco Nuvoloso 29 14 39 1012 10 N 7.4
Ieri h: 17:00 poco_nuvoloso Poco Nuvoloso 28 13 39 1012 10 O/NO 11.1
Ieri h: 16:30 poco_nuvoloso Poco Nuvoloso 30 13 35 1013 10 N 5.5
Ieri h: 16:00 poco_nuvoloso Poco Nuvoloso 29 12 35 1013 10 E 9.3
Ieri h: 15:30 poco_nuvoloso Poco Nuvoloso 29 13 37 1013 10 E/SE 13
Ieri h: 15:00 poco_nuvoloso Poco Nuvoloso 27 14 44 1013 10 NE 14.8
Ieri h: 14:30 poco_nuvoloso Poco Nuvoloso 29 12 35 1013 10 E 14.8
Ieri h: 14:00 poco_nuvoloso Poco Nuvoloso 29 12 35 1013 10 E 20.3